Cherokee, North Carolina, United States (28719)
Lat: 35.47N, Lon: 83.31W
Wx Zone: NCZ051
Local Info
Past Weather Observations for Today

NOTE: This archive is for the closest National Weather Service station to Cherokee. Information may differ from the station used for current weather conditions.

Click here for Long-term Archive

Time Weather Temperature Dewpoint Humidity Pressure Winds Precip Visibility
06:55
Fog
45°F / 7°C 45°F / 7°C 100% 30.3 in
(1026 mb)
Calm - 1/4SM
06:35
Fog
45°F / 7°C 45°F / 7°C 100% 30.27 in
(1025 mb)
Calm - 1/2SM
06:15
Fog
45°F / 7°C 45°F / 7°C 100% 30.27 in
(1025 mb)
Calm - 1/4SM
05:55
Fog
45°F / 7°C 45°F / 7°C 100% 30.27 in
(1025 mb)
Calm - 1/4SM
05:35
Fog
45°F / 7°C 45°F / 7°C 100% 30.27 in
(1025 mb)
Calm - 1/4SM
05:15
Fog
45°F / 7°C 45°F / 7°C 100% 30.27 in
(1025 mb)
Calm - 1/4SM
04:55
Fog
45°F / 7°C 45°F / 7°C 100% 30.24 in
(1024 mb)
Calm - 1/4SM
04:35
Fog
45°F / 7°C 45°F / 7°C 100% 30.24 in
(1024 mb)
Calm - 1/4SM
04:15
Fog
45°F / 7°C 45°F / 7°C 100% 30.24 in
(1024 mb)
Calm - 1/4SM
03:55
Fog
45°F / 7°C 45°F / 7°C 100% 30.24 in
(1024 mb)
Calm - 1/4SM
03:35
Fog
45°F / 7°C 45°F / 7°C 100% 30.24 in
(1024 mb)
Calm - 1/4SM
03:15
Fog
45°F / 7°C 45°F / 7°C 100% 30.24 in
(1024 mb)
SW 3.5 mph
(SW 6 kph)
- 1/2SM
02:55
Fair
45°F / 7°C 45°F / 7°C 100% 30.24 in
(1024 mb)
Calm - 10SM
02:35
Fair
45°F / 7°C 45°F / 7°C 100% 30.24 in
(1024 mb)
Calm - 7SM
02:15
Fair
45°F / 7°C 45°F / 7°C 100% 30.24 in
(1024 mb)
Calm - 10SM
01:55
Fair
45°F / 7°C 45°F / 7°C 100% 30.24 in
(1024 mb)
Calm - 7SM
01:35
Fair
45°F / 7°C 45°F / 7°C 100% 30.24 in
(1024 mb)
Calm - 7SM
01:15
Fair
46°F / 8°C 46°F / 8°C 100% 30.24 in
(1024 mb)
Calm - 10SM
00:55
Fair
46°F / 8°C 46°F / 8°C 100% 30.24 in
(1024 mb)
Calm - 10SM
00:35
Fair
45°F / 7°C 45°F / 7°C 100% 30.24 in
(1024 mb)
Calm - 7SM
00:15
Fair
46°F / 8°C 46°F / 8°C 100% 30.24 in
(1024 mb)
Calm - 10SM
Time Weather Temperature Dewpoint Humidity Pressure Winds Precip Visibility


Weather for websites

WeatherForYou.com, LLC is not responsible for any damages or problems caused by this service. Current weather conditions are obtained from the closest station including government and personal stations which may have varying degrees of accuracy. Weather forecasts are derived from the NOAA NDFD. Like all things, this site belongs to Jesus Christ... He just trusts me to maintain it. If you have any questions or comments email webmaster@weatherforyou.com

Copyright © 2014, WeatherForYou.com LLC. All rights reserved.